Regional Weather Roundup
Issued by NWS

Home | Current Version | Previous Version | Text Only | Print | Product List | Glossary On
Versions: 1 2 3 4 5 6 7 8 9 10 11 12 13 14 15 16 17 18 19 20 21 22 23 24 25 26 27
000
ASUS44 KLIX 210813
RWRLA
LOUISIANA WEATHER ROUNDUP
NATIONAL WEATHER SERVICE NEW ORLEANS LA
300 AM CDT MON AUG 21 2017

NOTE: "FAIR" INDICATES FEW OR NO CLOUDS BELOW 12,000 FEET WITH NO
      SIGNIFICANT WEATHER AND/OR OBSTRUCTIONS TO VISIBILITY.
      SKY/WX - SKY CONDITION AND SIGNIFICANT WEATHER.
      TMP - AIR TEMPERATURE.    DP   - DEWPOINT TEMPERATURE.
      RH  - RELATIVE HUMIDITY.  PRES - PRESSURE.
      HX  - HEAT INDEX.         WCI  - WIND CHILL INDEX.

*  THESE STATIONS ARE NOT NWS OR FAA STATIONS AND ARE NOT UNDER
   NWS QUALITY CONTROL.

LAZ040-048-061>063-065-066-069-210900-
SOUTHEAST LOUISIANA

CITY           SKY/WX    TMP DP  RH WIND       PRES   REMARKS
N.O. INTL ARPT PTCLDY    79  77  94 CALM      30.06S
N.O. LAKEFRONT CLEAR     84  78  82 S3        30.06S HX  95
N.O. DOWNTOWN* FAIR      85  77  77 S3        30.07S HX  95
RESERVE*       FAIR      79  76  92 CALM      30.06S FOG
SLIDELL        PTCLDY    76  74  93 CALM      30.06S
BATON ROUGE    CLEAR     76  74  93 CALM      30.07S
BOOTHVILLE     PTCLDY    83  79  88 SE3       30.05F
BELLE CHASSE   NOT AVBL
BOGALUSA*      FAIR      77  74  89 CALM      30.10R
GALLIANO*      SUNNY     76  74  91 CALM      30.05F FOG
NEW ROADS*     FAIR      76  75  96 CALM      30.08S
GONZALES*      FAIR      75  74  99 CALM      30.06S
HAMMOND*       MOCLDY    77  72  83 CALM      30.07S
HOUMA*         NOT AVBL
PORT FOURCHON* SUNNY     86  75  70 SE7       30.04F HX  95

$$

LAZ041-044-053-054-210900-
SOUTHWEST LOUISIANA

CITY           SKY/WX    TMP DP  RH WIND       PRES   REMARKS
LAKE CHARLES   CLEAR     79  76  90 CALM      30.05S
LAFAYETTE      CLEAR     78  76  93 CALM      30.06S
PATTERSON      CLEAR     76  75  97 CALM      30.06F
SALT POINT       N/A     77  76  96 CALM      30.04S
NEW IBERIA     CLEAR     76  72  87 CALM      30.06F
CHENAULT AIRPK CLEAR     78  76  95 CALM      30.06S

$$

LAZ027-028-210900-
CENTRAL LOUISIANA

CITY           SKY/WX    TMP DP  RH WIND       PRES   REMARKS
FORT POLK      CLEAR     74  73  96 CALM      30.07S
ALEXANDRIA INT   N/A    N/A N/A N/A MISG      30.06R
ALEXANDRIA     PTCLDY    75  75 100 CALM      30.08S FOG

$$

LAZ001-002-210900-
NORTHWEST LOUISIANA

CITY           SKY/WX    TMP DP  RH WIND       PRES   REMARKS
SHREVEPORT     PTCLDY    75  75 100 CALM      30.07S
BARKSDALE AFB  CLEAR     74  74 100 CALM      30.08R FOG
DTN SHREVEPORT CLEAR     77  74  90 CALM      30.08R

$$

LAZ014-016-210900-
NORTHEAST LOUISIANA

CITY           SKY/WX    TMP DP  RH WIND       PRES   REMARKS
MONROE         CLEAR     77  76  96 CALM      30.09R FOG
TALLULAH       CLEAR     77  75  93 CALM      30.08S FOG

$$





USA.gov is the U.S. government's official web portal to all federal, state and local government web resources and services.